Location: ????????
(56.1167°N, 38.6333°E)
Time: 22:07:19
(UTC+00:00)

COSMOS 2406 - Pass Details

Date: 18 November 2025
Orbit: 845 x 858 km, 71.0° (Epoch: 06 December)

Event Time Altitude Azimuth Distance (km) Brightness Sun altitude
Rises 14:38:56 0° 324° (NW) 3,419 6.6 -11.7°
Reaches altitude 10° 14:41:27 10° 329° (NNW) 2,481 5.8 -12.0°
Maximum altitude 14:47:03 56° 47° (NE) 1,011 3.3 -12.8°
Drops below altitude 10° 14:52:38 10° 125° (SE) 2,474 5.3 -13.5°
Enters shadow 14:54:43 - 130° (SE) 3,249 5.9 -13.8°
